FW9424 Weather Reports


time (UTC)temp
C
wind
direction
speed
KPH
gust
KPH
rain 1hr
cm
rain 24hr
cm
rain mn
cm
humidity
%
barometer
mb
20260504081517 15 286 12.9 32.2 0.00 0.76 0.00 52 1015.4
20260504080517 13 291 11.3 27.4 0.00 0.76 0.00 53 1015.4
20260504050517 12 312 12.9 48.3 0.00 0.76 0.00 58 1014.0
20260504045517 11 322 14.5 33.8 0.00 0.76 0.00 59 1014.0
20260504044518 11 334 14.5 33.8 0.00 0.76 0.00 60 1013.9
20260504043517 11 320 14.5 35.4 0.00 0.76 0.00 61 1013.9
20260504042517 11 318 17.7 38.6 0.00 0.76 0.00 61 1013.8
20260504041517 11 311 17.7 41.8 0.00 0.76 0.00 61 1013.6
20260504040517 11 329 17.7 38.6 0.00 0.76 0.00 60 1013.3
20260504035517 11 315 11.3 41.8 0.00 0.76 0.00 60 1013.3
20260504034517 11 325 12.9 29.0 0.00 0.76 0.00 61 1013.3
20260504033517 11 338 14.5 33.8 0.00 0.76 0.00 61 1013.3
20260504032517 11 321 14.5 33.8 0.00 0.76 0.00 59 1013.3
20260504031517 11 321 12.9 29.0 0.00 0.76 0.00 58 1013.1
20260504030517 11 310 14.5 38.6 0.00 0.76 0.00 59 1013.1
20260504025537 11 321 12.9 38.6 0.00 0.76 0.00 59 1013.0
20260504024517 11 337 14.5 32.2 0.00 0.76 0.00 59 1012.9
20260504023517 11 333 19.3 49.9 0.00 0.76 0.00 58 1013.0
20260504022538 11 327 17.7 40.2 0.00 0.76 0.00 58 1012.9
20260504021517 11 303 12.9 37.0 0.00 0.76 0.00 58 1012.8
20260504020517 11 340 12.9 30.6 0.00 0.76 0.00 60 1012.8
20260504015517 11 344 12.9 40.2 0.00 0.76 0.00 60 1012.7
20260504014558 11 341 12.9 30.6 0.00 0.76 0.00 60 1012.6
20260504013537 11 339 12.9 32.2 0.00 0.76 0.00 60 1012.7
20260504012517 11 332 14.5 33.8 0.00 0.76 0.00 60 1012.6
20260504011517 11 323 14.5 35.4 0.00 0.76 0.00 59 1012.5
20260504010517 11 327 16.1 32.2 0.00 0.76 0.00 59 1012.4
20260504005517 11 301 17.7 37.0 0.00 0.76 0.00 59 1012.3
20260504004517 11 305 14.5 35.4 0.00 0.76 0.00 60 1012.3
20260504003517 11 336 17.7 35.4 0.00 0.76 0.00 61 1012.2
20260504002538 11 327 14.5 40.2 0.00 0.76 0.00 63 1012.1
20260504001557 11 340 20.9 46.7 0.00 0.76 0.00 63 1012.0
20260504000517 11 328 17.7 41.8 0.00 0.76 0.00 63 1011.9
20260503235517 11 318 16.1 40.2 0.00 0.76 0.00 62 1011.9
20260503234517 11 339 16.1 43.5 0.00 0.76 0.00 62 1012.0
20260503233517 11 309 17.7 43.5 0.00 0.76 0.00 62 1011.9
20260503232537 11 313 24.1 51.5 0.00 0.76 0.00 62 1011.9
20260503231517 11 314 17.7 41.8 0.00 0.76 0.00 64 1011.8
20260503230517 11 305 16.1 33.8 0.00 0.76 0.00 66 1011.9
20260503225517 11 298 20.9 51.5 0.00 0.76 0.00 66 1011.8
20260503224558 11 326 17.7 43.5 0.00 0.76 0.00 67 1011.9
20260503223517 11 340 19.3 41.8 0.00 0.76 0.00 69 1011.7
20260503222517 11 302 17.7 41.8 0.00 0.76 0.00 69 1011.7
20260503221517 11 304 16.1 41.8 0.00 0.76 0.00 69 1011.6
20260503220517 11 321 16.1 46.7 0.00 0.76 0.00 71 1011.6
20260503215518 11 306 20.9 45.1 0.00 0.76 0.00 72 1011.5
20260503214517 11 314 14.5 33.8 0.00 0.76 0.00 71 1011.5
20260503213517 11 303 14.5 41.8 0.00 0.76 0.00 72 1011.4
20260503212517 11 326 17.7 43.5 0.00 0.76 0.00 73 1011.3
20260503211517 11 325 14.5 41.8 0.00 0.76 0.00 73 1011.1
20260503210518 11 321 16.1 45.1 0.00 0.76 0.00 73 1011.0
20260503205517 11 288 11.3 33.8 0.00 0.76 0.76 73 1010.9
20260503204517 11 307 19.3 40.2 0.00 0.76 0.76 73 1010.9
20260503203517 11 318 16.1 46.7 0.00 0.76 0.76 73 1010.8
20260503202518 11 293 16.1 43.5 0.00 0.76 0.76 73 1010.7
20260503201515 11 292 19.3 48.3 0.00 0.76 0.76 73 1010.6
20260503200515 11 302 17.7 46.7 0.00 0.76 0.76 73 1010.6
20260503195516 11 287 14.5 41.8 0.00 0.76 0.76 73 1010.4
20260503194515 11 292 22.5 64.4 0.00 0.76 0.76 72 1010.3
20260503193535 11 279 16.1 51.5 0.00 0.76 0.76 73 1010.2
20260503192515 11 303 22.5 51.5 0.05 0.76 0.76 73 1010.0
20260503191515 11 316 22.5 54.7 0.05 0.76 0.76 73 1010.0
20260503190516 11 311 16.1 46.7 0.05 0.76 0.76 74 1009.9
20260503185535 11 308 22.5 64.4 0.08 0.76 0.76 73 1009.6
20260503184515 11 332 22.5 49.9 0.08 0.76 0.76 75 1009.5
20260503183516 11 301 22.5 57.9 0.08 0.76 0.76 74 1009.3
20260503182515 11 292 24.1 46.7 0.05 0.71 0.71 74 1009.1
20260503181515 11 301 20.9 53.1 0.05 0.71 0.71 75 1008.8
20260503180517 11 310 24.1 59.5 0.05 0.71 0.71 75 1008.8
20260503175515 11 310 19.3 46.7 0.03 0.69 0.69 77 1008.6
20260503174515 11 311 25.7 61.2 0.05 0.69 0.69 77 1008.5
20260503173515 11 314 24.1 56.3 0.05 0.69 0.69 77 1008.4
20260503172515 11 327 22.5 57.9 0.05 0.69 0.69 78 1008.4
20260503171515 11 301 19.3 56.3 0.03 0.66 0.66 80 1008.3
20260503170515 11 310 22.5 51.5 0.03 0.66 0.66 79 1008.2
20260503150515 10 307 16.1 45.1 0.15 0.61 0.61 85 1007.5
20260503130536 11 329 14.5 32.2 0.03 0.43 0.43 78 1007.1
20260503110516 10 322 16.1 38.6 0.15 0.28 0.28 84 1007.7